Weather in Novlenskoe

Russia / Vologda Oblast     59°37′09″N   39°20′09″E
temp.,
°C
wind,
m/s
gust,
m/s
humid.,
%
clouds,
%
prec.,
mm/h
press.,
hPa
HPBL,
m
7 may, fri
fri700:00+6sw61290100 0.1 10011006
03:00+6sw5128833 0.1 1002825
06:00+6ssw51087100 0.0 1004834
09:00+7ssw5982100 0.3 1005945
12:00+8sw696769 0.4 10061496
15:00+11wsw6105394 0.9 10062175
18:00+9sw596633 0.8 10081263
21:00+5s39855 0.8 1010210
8 may, sat
sat800:00+4s3118920 0.0 1010226
03:00+3sse399597 0.0 1010198
06:00+6se41186100 0.0 1009334
09:00+9sse51570100 0.1 10081692
12:00+10sse71767100 0.1 10061834
15:00+9sse71579100 0.9 10051513
18:00+7sse61693100 2.8 10031447
21:00+7se51296100 5.3 10001113
9 may, sun
sun900:00+7se3998100 1.9 998570
03:00+8s4996100 2.4 996577
06:00+4sw4997100 1.8 997787
09:00+3wsw71497100 3.0 1003826
12:00+3wsw61297100 3.4 1008989
15:00+5w51291100 5.8 10141108
18:00+8w397539 0.1 10171315
21:00+4wsw22841 0.1 102026
10 may, mon
mon1000:00+2wsw228496 0.0 102225
03:00+2ssw388862 0.0 1024126
06:00+4sw3118322 0.0 1024280
09:00+10sw5961100 0.0 1025665
12:00+12sw695276 0.0 10251726
15:00+9sw51176100 0.1 1026853
18:00+11sw41077100 0.0 1025694
21:00+8ssw3109299 0.0 1026224
11 may, tue
tue1100:00+9sw41388100 0.0 1026338
03:00+9sw41389100 0.0 1027340
06:00+10sw41385100 0.0 1027388
09:00+15sw5116717 0.0 1027592
12:00+18sw695545 0.0 1027973
15:00+19sw68520 0.0 10271258
18:00+18sw486281 0.0 1027892
21:00+12ssw3118337 0.0 1027242